Weather History for KGFL - November, 2012

Change the Weather History Date:

Tuesday, November 27, 2012

  Actual Average Record
Temperature  
Mean Temperature 32 °F 33 °F  
Max Temperature 39 °F 42 °F 61 °F (1976)
Min Temperature 25 °F 24 °F 3 °F (1957)
Degree Days  
Heating Degree Days 33 32  
Month to date heating degree days 763 743  
Since 1 July heating degree days 1413 1598  
Cooling Degree Days 0 0  
Month to date cooling degree days 0 0  
Year to date cooling degree days 533 352  
Moisture  
Dew Point 26 °F    
Average Humidity 70    
Maximum Humidity 92    
Minimum Humidity 48    
Precipitation  
Precipitation 0.00 in 0.11 in 1.27 in (1965)
Month to date precipitation 0.46 2.98  
Year to date precipitation 31.37 35.68  
Sea Level Pressure  
Sea Level Pressure 30.27 in    
Wind  
Wind Speed 3 mph (South)    
Max Wind Speed 12 mph    
Max Gust Speed 15 mph    
Visibility 9 miles    
Events      
T = Trace of Precipitation, MM = Missing Value Source: NWS Daily Summary

Daily Weather History Graph

Daily Weather History Graph

Search for Another Location

Airport or City:

Trip Planner

Search our weather history database for the weather conditions in past years. The results will help you decide how hot, cold, wet, or windy it might be!

Date:

Astronomy

Nov. 27, 2012 Rise Set
Actual Time 7:03 AM EST 4:21 PM EST
Civil Twilight 6:31 AM EST 4:52 PM EST
Nautical Twilight 5:55 AM EST 5:28 PM EST
Astronomical Twilight 5:21 AM EST 6:02 PM EST
Moon 3:51 PM EST (11/27) 6:04 AM EST (11/27)
Length of Visible Light 10h 21m
Length of Day
9h 18m
Waxing Gibbous, 99% of the Moon is Illuminated
Nov 27
Waxing Gibbous
Nov 28
Full
Dec 6
Last Quarter
Dec 13
New
Dec 20
First Quarter

Hourly Weather History & Observations

Time (EST) Temp. Windchill Dew Point Humidity Pressure Visibility Wind Dir Wind Speed Gust Speed Precip Events Conditions
12:53 AM 30.0 °F - 25.0 °F 82% 30.24 in 10.0 mi Calm Calm - N/A   Overcast
1:53 AM 28.9 °F 25.2 °F 26.1 °F 89% 30.26 in 10.0 mi SE 3.5 mph - N/A   Mostly Cloudy
2:53 AM 27.0 °F 23.0 °F 25.0 °F 92% 30.26 in 10.0 mi SSW 3.5 mph - N/A   Mostly Cloudy
3:53 AM 27.0 °F - 25.0 °F 92% 30.26 in 10.0 mi Calm Calm - N/A   Mostly Cloudy
4:53 AM 27.0 °F - 25.0 °F 92% 30.25 in 10.0 mi Calm Calm - N/A   Mostly Cloudy
5:53 AM 28.0 °F 24.2 °F 26.1 °F 92% 30.26 in 10.0 mi SSW 3.5 mph - N/A   Mostly Cloudy
6:53 AM 26.1 °F - 25.0 °F 96% 30.27 in 10.0 mi Calm Calm - N/A   Scattered Clouds
7:53 AM 26.1 °F - 25.0 °F 96% 30.28 in 9.0 mi Calm Calm - N/A   Clear
8:53 AM 30.0 °F - 27.0 °F 88% 30.30 in 9.0 mi Calm Calm - N/A   Overcast
9:53 AM 36.0 °F - 23.0 °F 59% 30.30 in 10.0 mi Calm Calm - N/A   Overcast
10:53 AM 39.0 °F 32.8 °F 21.9 °F 50% 30.30 in 10.0 mi SSW 9.2 mph - N/A   Overcast
11:53 AM 37.9 °F 32.1 °F 26.1 °F 62% 30.28 in 10.0 mi SSE 8.1 mph - N/A   Scattered Clouds
12:53 PM 37.0 °F 30.4 °F 26.1 °F 65% 30.27 in 10.0 mi SE 9.2 mph - N/A   Overcast
1:53 PM 37.9 °F 32.1 °F 23.0 °F 55% 30.25 in 10.0 mi South 8.1 mph - N/A   Overcast
2:53 PM 37.4 °F 32.8 °F 24.8 °F 60% 30.22 in 10.0 mi SE 5.8 mph - N/A   Overcast
3:53 PM 36.0 °F 31.1 °F 26.1 °F 67% 30.26 in 10.0 mi South 5.8 mph - N/A   Overcast
4:53 PM 34.0 °F 29.8 °F 26.1 °F 73% 30.27 in 10.0 mi South 4.6 mph - N/A   Overcast
5:53 PM 34.0 °F 31.0 °F 27.0 °F 75% 30.27 in 10.0 mi South 3.5 mph - N/A   Overcast
6:53 PM 33.1 °F 28.7 °F 28.0 °F 82% 30.29 in 10.0 mi SSW 4.6 mph - N/A   Overcast
7:53 PM 33.1 °F - 28.9 °F 85% 30.28 in 9.0 mi Calm Calm - N/A   Overcast
8:53 PM 30.9 °F - 28.0 °F 89% 30.28 in 7.0 mi Calm Calm - N/A   Overcast
9:53 PM 30.0 °F - 28.9 °F 96% 30.28 in 6.0 mi Calm Calm - N/A   Overcast
10:53 PM 30.0 °F - 28.0 °F 92% 30.28 in 6.0 mi Calm Calm - N/A   Overcast
11:53 PM 30.0 °F - 28.0 °F 92% 30.27 in 5.0 mi Calm Calm - N/A   Overcast